COSMOS 2251 DEB, 34274

Orbit data source: Space-Track

COSMOS 2251 DEB, 34274 is space debris in LEO originally from a launch on Wed, 16 Jun 1993 UTC launched from the Plesetsk Missile And Space Complex (PKMTR). The debris from Iridium 33, an American commercial communications satellite, has been tracked extensively since its accidental collision with the defunct Russian satellite Cosmos 2251 in 2009. This event, occurring at high speed in low Earth orbit (LEO), generated thousands of pieces of space debris, significantly increasing the risk of further collisions. The Iridium 33 debris cloud has impacted space traffic management and orbital debris mitigation strategies, making it a subject of ongoing study in space situational awareness.

Loading next visibility...
Identifier
34274, 1993-036LU
Orbit
LEO
Country
Flag of CISCIS
Related business
Manufacturer
Unknown
Mission
Spacecraft
Bus & Motor
Unknown
Mass
Unknown
Launch date (UTC)
1993-06-16 (33 years ago)
Launch vehicle
Unknown
Launch site
Plesetsk Missile And Space Complex (PKMTR)
Object type
Payload
Rocket body
Debris
Shape & HBR
Unknown shape, 0.1 m
Radar Cross Section
Medium (>0.1 m² and <1 m²)

Expand to show TLE details & history
Last TLE update: 19 hours ago

TLE from 19 hours ago
0 COSMOS 2251 DEB
1 34274U 93036LU  26228.27624948  .00001976  00000-0  35476-3 0  9994
2 34274  74.0029 312.4775 0022123  31.6162  30.2886 14.67271171922896
Epoch: 2026-08-16T06:37Z
TLE epoch observation values (Epoch: 2026-08-16T06:37:47.955Z)
Latitude
58.21362°
Longitude
-84.25184°
Altitude
665.806 km
Speed
7.537 km/s
True Right ascension
22h 39m 29s
True Declination
58° 03' 27"
Sunlit
Object was in daylight at epoch
Visualization orbit readout
Latitude
Unknown
Longitude
Unknown
Altitude
Unknown
Speed
Unknown
Apparent Right ascension
Unknown
Apparent Declination
Unknown
Sunlit
N/A
Visualization observer readout
Local Sidereal Time
16:39:38
Azimuth
Unknown
Elevation
Unknown
Doppler factor
Unknown
Orbital elements
Apogee altitude
682.972 km
Perigee altitude
651.799 km
Semi-major axis
7,045.522 km
Eccentricity
0.00221
Inclination
74.0029°
RAAN
312.4775°
Arg. of periapsis
31.6162°
True anomaly
30.41677°
Mean anomaly
30.2886°
Eccentric anomaly
30.35265°
Mean motion
3.67006 °/min
Orbital period
98.09 mins
BSTAR
0.00035476
Loading maneuver chart data...
Computing Atmospheric mass density...

Documentation

Showing up to 5 results
|